Location: Bjelajci
(45.0103°N, 16.1758°E)
Time: 09:27:36
(UTC+00:00)

Tsikada Rocket - Pass Details

Date: 14 July 2020
Orbit: 959 x 1008 km, 82.9° (Epoch: 07 August)

Event Time Altitude Azimuth Distance (km) Brightness Sun altitude
Rises 01:31:18 0° 347° (NNW) 3,746 7.7 -15.1°
Reaches altitude 10° 01:33:53 10° 343° (NNW) 2,794 6.9 -14.8°
Maximum altitude 01:40:06 53° 269° (W) 1,221 4.3 -14.2°
Enters shadow 01:45:05 16° 197° (SSW) 2,358 5.4 -13.6°
